TimeCDT,TemperatureF,Dew PointF,Humidity,Sea Level PressureIn,VisibilityMPH,Wind Direction,Wind SpeedMPH,Gust SpeedMPH,PrecipitationIn,Events,Conditions,WindDirDegrees,DateUTC
12:14 AM,35.6,26.6,70,30.28,10.0,WNW,9.2,-,N/A,,Clear,290,2012-10-05 05:14:00
12:34 AM,33.8,24.8,70,30.27,10.0,WNW,8.1,-,N/A,,Clear,300,2012-10-05 05:34:00
12:54 AM,33.8,26.6,75,30.27,10.0,WNW,8.1,-,N/A,,Scattered Clouds,300,2012-10-05 05:54:00
1:14 AM,33.8,26.6,75,30.27,10.0,WNW,6.9,-,N/A,,Scattered Clouds,290,2012-10-05 06:14:00
1:34 AM,33.8,26.6,75,30.27,10.0,West,6.9,-,N/A,,Clear,280,2012-10-05 06:34:00
1:54 AM,33.8,26.6,75,30.26,10.0,NW,5.8,-,N/A,,Clear,310,2012-10-05 06:54:00
2:14 AM,32.0,23.0,69,30.27,10.0,WNW,5.8,-,N/A,,Clear,290,2012-10-05 07:14:00
2:35 AM,32.0,24.8,75,30.27,10.0,West,3.5,-,N/A,,Clear,270,2012-10-05 07:35:00
2:54 AM,30.2,23.0,75,30.27,10.0,West,3.5,-,N/A,,Clear,260,2012-10-05 07:54:00
3:14 AM,28.4,23.0,80,30.26,10.0,West,3.5,-,N/A,,Scattered Clouds,270,2012-10-05 08:14:00
3:34 AM,30.2,23.0,75,30.26,10.0,West,3.5,-,N/A,,Scattered Clouds,280,2012-10-05 08:34:00
3:54 AM,30.2,23.0,75,30.26,10.0,WNW,3.5,-,N/A,,Clear,290,2012-10-05 08:54:00
4:15 AM,28.4,23.0,80,30.26,10.0,Calm,Calm,-,N/A,,Clear,0,2012-10-05 09:15:00
4:34 AM,26.6,21.2,80,30.26,10.0,SW,3.5,-,N/A,,Clear,230,2012-10-05 09:34:00
4:54 AM,26.6,21.2,80,30.26,10.0,WSW,4.6,-,N/A,,Clear,250,2012-10-05 09:54:00
5:14 AM,30.2,23.0,75,30.26,10.0,WNW,3.5,-,N/A,,Clear,300,2012-10-05 10:14:00
5:34 AM,30.2,23.0,75,30.27,10.0,WNW,4.6,-,N/A,,Clear,290,2012-10-05 10:34:00
5:55 AM,30.2,24.8,80,30.26,10.0,WNW,6.9,-,N/A,,Clear,300,2012-10-05 10:55:00
6:14 AM,30.2,24.8,80,30.26,10.0,WNW,5.8,-,N/A,,Clear,300,2012-10-05 11:14:00
6:34 AM,28.4,23.0,80,30.26,10.0,NW,4.6,-,N/A,,Clear,320,2012-10-05 11:34:00
6:55 AM,30.2,24.8,80,30.26,10.0,NW,4.6,-,N/A,,Clear,310,2012-10-05 11:55:00
7:14 AM,30.2,26.6,86,30.26,10.0,NW,8.1,-,N/A,,Clear,320,2012-10-05 12:14:00
7:34 AM,32.0,26.6,80,30.26,10.0,NW,9.2,-,N/A,,Clear,320,2012-10-05 12:34:00
7:55 AM,32.0,24.8,75,30.26,10.0,NW,10.4,-,N/A,,Clear,320,2012-10-05 12:55:00
8:14 AM,32.0,26.6,80,30.26,10.0,NW,10.4,-,N/A,,Clear,320,2012-10-05 13:14:00
8:34 AM,33.8,26.6,75,30.27,10.0,NW,12.7,18.4,N/A,,Clear,320,2012-10-05 13:34:00
8:55 AM,33.8,24.8,70,30.27,10.0,NNW,13.8,18.4,N/A,,Clear,330,2012-10-05 13:55:00
9:14 AM,35.6,23.0,60,30.26,10.0,NNW,13.8,20.7,N/A,,Clear,330,2012-10-05 14:14:00
9:34 AM,35.6,23.0,60,30.26,10.0,NNW,13.8,23.0,N/A,,Clear,330,2012-10-05 14:34:00
9:54 AM,37.4,21.2,52,30.26,10.0,NNW,17.3,25.3,N/A,,Clear,330,2012-10-05 14:54:00
10:14 AM,39.2,21.2,49,30.26,10.0,NNW,17.3,28.8,N/A,,Clear,330,2012-10-05 15:14:00
10:34 AM,41.0,19.4,42,30.26,10.0,NW,20.7,26.5,N/A,,Clear,320,2012-10-05 15:34:00
10:54 AM,41.0,19.4,42,30.26,10.0,NNW,19.6,27.6,N/A,,Clear,330,2012-10-05 15:54:00
11:14 AM,42.8,19.4,39,30.27,10.0,NW,18.4,26.5,N/A,,Clear,320,2012-10-05 16:14:00
11:34 AM,42.8,19.4,39,30.26,10.0,NW,18.4,26.5,N/A,,Clear,320,2012-10-05 16:34:00
11:54 AM,42.8,19.4,39,30.26,10.0,NW,18.4,28.8,N/A,,Clear,320,2012-10-05 16:54:00
12:14 PM,44.6,19.4,37,30.27,10.0,NW,20.7,26.5,N/A,,Clear,310,2012-10-05 17:14:00
12:34 PM,44.6,19.4,37,30.27,10.0,WNW,21.9,27.6,N/A,,Clear,300,2012-10-05 17:34:00
12:54 PM,44.6,19.4,37,30.27,10.0,WNW,23.0,26.5,N/A,,Clear,300,2012-10-05 17:54:00
1:35 PM,46.4,19.4,34,30.26,10.0,WNW,20.7,34.5,N/A,,Clear,300,2012-10-05 18:35:00
1:54 PM,46.4,19.4,34,30.25,7.0,NW,17.3,27.6,N/A,,Clear,310,2012-10-05 18:54:00
2:14 PM,46.4,17.6,32,30.24,10.0,WNW,24.2,31.1,N/A,,Clear,300,2012-10-05 19:14:00
2:34 PM,48.2,17.6,30,30.24,10.0,WNW,25.3,31.1,N/A,,Clear,290,2012-10-05 19:34:00
2:54 PM,48.2,17.6,30,30.24,10.0,NW,24.2,31.1,N/A,,Clear,310,2012-10-05 19:54:00
3:14 PM,48.2,17.6,30,30.23,10.0,NW,25.3,32.2,N/A,,Clear,310,2012-10-05 20:14:00
3:34 PM,48.2,17.6,30,30.22,10.0,NW,16.1,24.2,N/A,,Clear,320,2012-10-05 20:34:00
3:54 PM,48.2,17.6,30,30.22,10.0,WNW,18.4,24.2,N/A,,Clear,290,2012-10-05 20:54:00
4:14 PM,48.2,17.6,30,30.22,10.0,NW,17.3,26.5,N/A,,Clear,310,2012-10-05 21:14:00
4:34 PM,46.4,17.6,32,30.22,10.0,NW,17.3,25.3,N/A,,Clear,310,2012-10-05 21:34:00
4:54 PM,46.4,15.8,29,30.21,10.0,NNW,15.0,27.6,N/A,,Clear,330,2012-10-05 21:54:00
5:14 PM,46.4,15.8,29,30.22,10.0,NW,19.6,24.2,N/A,,Clear,310,2012-10-05 22:14:00
5:34 PM,46.4,15.8,29,30.22,10.0,NW,13.8,25.3,N/A,,Clear,320,2012-10-05 22:34:00
5:54 PM,46.4,15.8,29,30.22,10.0,NW,20.7,25.3,N/A,,Clear,320,2012-10-05 22:54:00
6:14 PM,44.6,14.0,29,30.22,10.0,NW,17.3,24.2,N/A,,Clear,310,2012-10-05 23:14:00
6:34 PM,44.6,14.0,29,30.23,10.0,NNW,10.4,16.1,N/A,,Clear,330,2012-10-05 23:34:00
6:54 PM,42.8,14.0,31,30.23,10.0,NNW,11.5,-,N/A,,Clear,330,2012-10-05 23:54:00
7:14 PM,41.0,14.0,33,30.24,10.0,NW,10.4,-,N/A,,Clear,320,2012-10-06 00:14:00
7:34 PM,41.0,15.8,36,30.24,10.0,NW,10.4,-,N/A,,Clear,320,2012-10-06 00:34:00
7:53 PM,39.2,17.6,42,30.25,10.0,NW,9.2,-,N/A,,Clear,320,2012-10-06 00:53:00
8:14 PM,35.6,17.6,48,30.26,10.0,NW,6.9,-,N/A,,Clear,310,2012-10-06 01:14:00
8:34 PM,35.6,17.6,48,30.26,10.0,NW,9.2,-,N/A,,Clear,310,2012-10-06 01:34:00
8:54 PM,35.6,17.6,48,30.26,10.0,NW,9.2,-,N/A,,Clear,310,2012-10-06 01:54:00
9:14 PM,33.8,17.6,52,30.27,10.0,NW,9.2,-,N/A,,Clear,310,2012-10-06 02:14:00
9:34 PM,33.8,17.6,52,30.27,10.0,NW,9.2,-,N/A,,Clear,310,2012-10-06 02:34:00
9:54 PM,33.8,17.6,52,30.28,10.0,NW,6.9,-,N/A,,Clear,310,2012-10-06 02:54:00
10:14 PM,33.8,17.6,52,30.28,10.0,NW,6.9,-,N/A,,Clear,320,2012-10-06 03:14:00
10:35 PM,33.8,17.6,52,30.28,10.0,NNW,6.9,-,N/A,,Clear,330,2012-10-06 03:35:00
10:54 PM,32.0,19.4,60,30.28,10.0,NNW,6.9,-,N/A,,Clear,330,2012-10-06 03:54:00
11:35 PM,32.0,19.4,60,30.28,10.0,NNW,5.8,-,N/A,,Clear,330,2012-10-06 04:35:00
11:54 PM,32.0,21.2,64,30.28,10.0,NNW,4.6,-,N/A,,Clear,330,2012-10-06 04:54:00